星链-3906 (STARLINK-3906 )

导读

STARLINK-3906是美国太空探索技术公司星链星座中的一颗卫星,于2022年5月13日发射升空,属于星链网络建设的一部分。星链项目旨在构建全球卫星互联网星座,为全球偏远地区、海洋等区域提供高速互联网接入服务,该卫星承担着扩展星链星座覆盖范围、提升网络服务容量的任务。

基本信息
目录编号:
52585
目录名称:
STARLINK-3906
国际标识:
2022-051BB
轨道中心:
EARTH
卫星名称:
星链-3906
卫星全名:
星链-3906 (STARLINK-3906 )
卫星状态:
在轨 (已飞行1585 天)
发射日期:
2022-05-13 UTC
国别 :
美国 (US)
星等 :
--
该卫星已列入 空间交会检测服务 Space Conjunction Data Service (SCDS) ,当前飞行风险评估等级: 无高风险
轨道信息
数据来源 国际轨道数据 AOE轨道数据
星历时间 2026-09-13T18:48:07+0800
17小时前
查看轨道信息
2026-09-11T07:00:00+0800
3天前
查看轨道信息
半长轴 6917.906km 6917.924km
偏心率 0.0001116 0.0001274
轨道倾角 53.163° 53.162°
近地点辐角 88.888° 76.866°
升交点赤经 355.572° 6.773°
平近点角 271.224° 61.127°
近地点 538.996km 538.905km
远地点 540.542km 540.669km
周期 95.438分钟 95.438分钟
每日圈数 15.088317 15.088258
详细信息
固有亮度:
5
最大亮度:
2.5
卫星平台:
Starlink v1.5
覆盖范围:
全球
运营商:
太空探索技术公司
运营商所在国:
美国
制造商(研发单位):
太空探索技术公司
制造商所在国:
美国
使用方式:
暂无
卫星简介
星链(Starlink)计划是由太空探索技术公司(SpaceX)提出的一个巨型低轨卫星互联网星座项目,计划在2019年至2024年间在太空搭建由约1.2万颗卫星组成的“星链”网络,其中1584颗将部署在地球上空550千米处的近地轨道,并从2020年开始工作。该卫星仍在工作。
2D轨道图
3D轨道图
轨道高度分析图
轨道倾角分析图
轨道综合分析图
查看轨道综合分析图
交会数据列表
事件ID 空间交会对象 最接近时刻(TCA) 交会距离 交会风险概率(CRP) 交会风险指数(CRI) 操作
CDM_260916-020003-941905-258521
2026-09-16T
02:00:11+0000
2.896 km
极远距离
1.216917E-6 低风险 0.37
与全量物体交会距离演化趋势 订阅飞行安全评估服务
与全量物体交会风险概率演化趋势 订阅飞行安全评估服务